This is the latest recevied weather packets stored in our database for station/object KB3HLL. If no packets are shown the sender has not sent any weather packets the latest 10 day(s).
| Time | Temp. | Humidity | Pressure | Rain* | Wind** | Luminosity | Snow |
|---|---|---|---|---|---|---|---|
| 1777992079 | 18.89° C | 72% | 1011.3 hPa | 0 mm | - | 776 W/m² | - |
| 1777991780 | 18.33° C | 74% | 1011.4 hPa | 0 mm | - | 771 W/m² | - |
| 1777991481 | 18.33° C | 74% | 1011.3 hPa | 0 mm | - | 766 W/m² | - |
| 1777991180 | 17.78° C | 75% | 1011 hPa | 0 mm | - | 673 W/m² | - |
| 1777990879 | 17.78° C | 74% | 1011.2 hPa | 0 mm | - | 713 W/m² | - |
| 1777990578 | 17.78° C | 77% | 1011.3 hPa | 0 mm | - | 655 W/m² | - |
| 1777989980 | 17.22° C | 78% | 1011.3 hPa | 0 mm | - | 686 W/m² | - |
| 1777989680 | 16.67° C | 79% | 1011.3 hPa | 0 mm | - | 666 W/m² | - |
| 1777989380 | 16.67° C | 81% | 1011.3 hPa | 0 mm | - | 647 W/m² | - |
| 1777989080 | 16.67° C | 78% | 1011.2 hPa | 0 mm | - | 623 W/m² | - |
| 1777988780 | 16.67° C | 78% | 1011.3 hPa | 0 mm | - | 608 W/m² | - |
| 1777988480 | 16.67° C | 79% | 1011.3 hPa | 0 mm | - | 586 W/m² | - |
| 1777988180 | 16.11° C | 83% | 1011.3 hPa | 0 mm | - | 559 W/m² | - |
| 1777987880 | 16.11° C | 83% | 1011.4 hPa | 0 mm | - | 556 W/m² | - |
| 1777987579 | 16.67° C | 81% | 1011.4 hPa | 0 mm | - | 551 W/m² | - |
| 1777987280 | 16.67° C | 78% | 1011.4 hPa | 0.25 mm | - | 528 W/m² | - |
| 1777986980 | 16.11° C | 79% | 1011.4 hPa | 0.51 mm | - | 501 W/m² | - |
| 1777986680 | 15.56° C | 84% | 1011.7 hPa | 0.51 mm | - | 491 W/m² | - |
| 1777986378 | 16.11° C | 85% | 1011.4 hPa | 1.02 mm | - | 452 W/m² | - |
| 1777986080 | 16.67° C | 86% | 1011.6 hPa | 1.52 mm | - | 425 W/m² | - |
| 1777985779 | 17.22° C | 74% | 1011.3 hPa | 1.52 mm | - | 397 W/m² | - |
| 1777985479 | 16.67° C | 76% | 1011.3 hPa | 1.52 mm | - | 423 W/m² | - |
| 1777985178 | 16.67° C | 77% | 1011.3 hPa | 1.52 mm | - | 378 W/m² | - |
| 1777984879 | 16.11° C | 78% | 1011.4 hPa | 1.52 mm | - | 359 W/m² | - |
| 1777984580 | 15.56° C | 80% | 1011.4 hPa | 1.52 mm | - | 108 W/m² | - |
* Rain latest hour (hover to see other rain measurements)
** Current wind speed in m/s (hover to see current wind gust speed)